Regional Weather Roundup
Issued by NWS

Home | Current Version | Previous Version | Text Only | Print | Product List | Glossary Off
Versions: 1 2 3 4 5 6 7 8 9 10 11 12 13 14 15 16 17 18 19 20 21 22 23 24 25 26 27 28 29 30 31 32 33 34 35 36 37 38 39 40 41 42 43 44 45 46 47 48 49 50

000
ASUS43 KLOT 200003
RWRIL

ILLINOIS REGIONAL WEATHER ROUNDUP
NATIONAL WEATHER SERVICE CHICAGO/ROMEOVILLE IL
600 PM CST THU JAN 19 2017

NOTE: "FAIR" INDICATES FEW OR NO CLOUDS BELOW 12,000 FEET WITH NO
SIGNIFICANT WEATHER AND/OR OBSTRUCTIONS TO VISIBILITY.

* THESE STATIONS ARE NOT UNDER NWS QUALITY CONTROL. THEY ALSO MAY NOT
  REPORT WEATHER SUCH AS PRECIPITATION OR FOG.

ILZ001-002-007-009-015-016-024-200100-
NORTHWEST ILLINOIS

CITY           SKY/WX    TMP DP  RH WIND       PRES   REMARKS
MOLINE         CLOUDY    39  36  89 E16       29.75F FOG     WCI  30
6HR MIN TEMP:  39; 6HR MAX TEMP:  42; 6HR PCP:  0.20;

STERLING*      RAIN      36  35  96 E8        29.81S FOG     WCI  30
SAVANNA*       LGT RAIN  37  36  98 E7        29.80F WCI  31
$$

ILZ003-004-008-010-011-017-018-200100-
NORTH CENTRAL ILLINOIS

CITY           SKY/WX    TMP DP  RH WIND       PRES   REMARKS
ROCKFORD       LGT RAIN  39  37  92 E7        29.82F FOG     WCI  34
6HR MIN TEMP:  36; 6HR MAX TEMP:  40; 6HR PCP:  0.04;

FREEPORT*      CLOUDY    35  35  99 E6        29.83S FOG     WCI  30
ROCHELLE*      DRIZZLE   37  37  98 E5        29.82S WCI  33
DE KALB*       DRIZZLE   38  37  98 E6        29.81F WCI  33
$$

ILZ005-006-012>014-019>023-200100-
NORTHEAST ILLINOIS

CITY           SKY/WX    TMP DP  RH WIND       PRES   REMARKS
CHICAGO-OHARE  LGT RAIN  39  36  89 E7        29.83F FOG     WCI  34
6HR MIN TEMP:  39; 6HR MAX TEMP:  42; 6HR PCP:  0.04;

CHICAGO-MIDWAY LGT RAIN  38  35  89 E10       29.84F FOG     WCI  31
6HR MIN TEMP:  38; 6HR MAX TEMP:  42; 6HR PCP:  0.04;

AURORA         LGT RAIN  40  37  89 E8        29.81F FOG
6HR MIN TEMP:  39; 6HR MAX TEMP:  41; 6HR PCP:  0.08;

LANSING*       RAIN      38  38  99 E7        29.84F WCI  33
JOLIET*        LGT RAIN  40  39  97 E7        29.84S
WAUKEGAN       CLOUDY    36  36 100 E8        29.84F FOG     WCI  30
6HR MIN TEMP:  35; 6HR MAX TEMP:  37;

DUPAGE AIRPORT LGT RAIN  39  36  89 E10       29.80F FOG     WCI  32
6HR MIN TEMP:  39; 6HR MAX TEMP:  42; 6HR PCP:  0.06;

KANKAKEE*      RAIN      39  38  97 E7        29.85R WCI  34
WHEELING       LGT RAIN  38  35  89 E5        29.85F FOG     WCI  34
6HR MIN TEMP:  38; 6HR MAX TEMP:  43; 6HR PCP:  0.02;

MORRIS*        LGT RAIN  38  37  96 E8        29.81F WCI  33
ROMEOVILLE*    LGT RAIN  38  38 100 E7        29.82F WCI  33
NORTHERLY ISL    N/A     35  33  92 NE1         N/A
$$

LMZ740>746-200100-
SOUTHERN LAKE MICHIGAN

STATION/POSITION SKY/WX   TEMP    WIND        PRES    VSBY  WAVE
                          AIR SEA DIR/SP/G                  HT/PER
                          (F)     (DEG/KT/KT) (MB)    (MI)  (FT/S)
HARRISON CRIB              38      90/  9/  9   N/A
BURNHAM HARBOR             35      40/  2/  5   N/A
CALUMET HARBOR             36     110/  5/  7 1010.9F
BURNS HARBOR               40     190/  7/ 11 1012.2S
MICHIGAN CITY              39     110/  6/  7   N/A
$$

ILZ025>027-034>036-040-047-049-050-058-095>099-200100-
WEST-CENTRAL ILLINOIS

CITY           SKY/WX    TMP DP  RH WIND       PRES   REMARKS
QUINCY         CLOUDY    44  43  96 E8        29.71R FOG
GALESBURG*     RAIN      39  39 100 E9        29.75R WCI  33
MACOMB*        CLOUDY    41  41 100 E8        29.76R FOG
JACKSONVILLE*  CLOUDY    43  42  99 E6        29.73R FOG
PITTSFIELD*    FOG       44  44  99 E5        29.72F VSB 3/4
$$

ILZ028>032-037-038-041>044-048-051>054-059>061-200100-
CENTRAL ILLINOIS

CITY           SKY/WX    TMP DP  RH WIND       PRES   REMARKS
BLOOMINGTON    LGT RAIN  39  39 100 E16       29.76F FOG     WCI  30
DECATUR        CLOUDY    42  42 100 E14       29.74F
PEORIA         LGT RAIN  41  40  96 E10       29.75F
6HR MIN TEMP:  41; 6HR MAX TEMP:  43; 6HR PCP:  0.01;

LACON*         DRIZZLE   38  38 100 E8        29.77F WCI  32
LINCOLN*       RAIN      43  42  99 E9        29.74S
SPRINGFIELD    CLOUDY    45  43  93 E7        29.74S FOG
6HR MIN TEMP:  43; 6HR MAX TEMP:  45; 6HR PCP:  0.08;

TAYLORVILLE    CLOUDY    43  42  99 E8        29.73R FOG
$$

ILZ033-039-045-046-055>057-062-063-200100-
EAST-CENTRAL ILLINOIS

CITY           SKY/WX    TMP DP  RH WIND       PRES   REMARKS
CHAMPAIGN      CLOUDY    43  39  86 E17       29.76S
MATTOON        CLOUDY    43  42  97 SE12G20   29.73F
PARIS*         DRIZZLE   43  42  98 E9        29.78F
$$

ILZ079-100>102-200100-
SOUTHWEST ILLINOIS

CITY           SKY/WX    TMP DP  RH WIND       PRES   REMARKS
ALTON          FOG       45  45 100 SE8       29.72R VSB 1/4
CAHOKIA*       FOG       47  46  97 CALM      29.71S VSB 1/2
SPARTA*        FOG       47  46  99 E5        29.71F VSB 1/2
$$

ILZ064>066-069>071-074>076-080>082-084>086-088>090-092>094-200100-
SOUTH-CENTRAL ILLINOIS

CITY           SKY/WX    TMP DP  RH WIND       PRES   REMARKS
CARBONDALE     FOG       49  49 100 NE3       29.70F VSB 3/4
6HR MIN TEMP:  47; 6HR MAX TEMP:  49;

CAIRO*         CLOUDY    57  57 100 S5        29.70S
EFFINGHAM*     CLOUDY    45  45 100 E10       29.74F FOG
MARION         LGT RAIN  52  52 100 E3        29.71F VSB 1
MT. VERNON     LGT RAIN  47  47 100 E3        29.72S FOG
SALEM*         CLOUDY    47  45  95 E5        29.72F FOG
METROPOLIS*    CLOUDY    56  56  99 CALM      29.71F FOG
$$

ILZ067-068-072-073-078-083-087-091-200100-
SOUTHEAST ILLINOIS

CITY           SKY/WX    TMP DP  RH WIND       PRES   REMARKS
LAWRENCEVILLE  HVY RAIN  47  47 100 E9        29.76F FOG
FLORA*         RAIN      47  46  97 E6        29.73F
FAIRFIELD*     CLOUDY    47  47 100 CALM      29.72F
HARRISBURG*    DRIZZLE   51  51 100 E5        29.72F
ROBINSON*      DRIZZLE   45  44  97 SE7       29.78S
CARMI*         RAIN      50  50 100 S9        29.72F
$$

ABBREVIATIONS USED IN REMARKS
   TC - TEMPERATURE IN CELSIUS
  WCI - WIND CHILL INDEX
   HX - HEAT INDEX
  VSB - VISIBILITY
$$




USA.gov is the U.S. government's official web portal to all federal, state and local government web resources and services.